Kennedy Space Center, FL

10:57 PM EST on February 24, 2017 (GMT -0500)
Nasa Shuttle

Weather History for KTTS - October, 2012

Change the Weather History Date:

Tuesday, October 30, 2012

  Actual Average Record
Temperature  
Mean Temperature 56 °F -  
Max Temperature 67 °F 78 °F 86 °F (1996)
Min Temperature 47 °F 62 °F 47 °F (2012)
Degree Days  
Heating Degree Days 8    
Growing Degree Days 6 (Base 50)    
Moisture  
Dew Point 36 °F    
Average Humidity 48    
Maximum Humidity 74    
Minimum Humidity 28    
Precipitation  
Precipitation 0.00 in - - ()
Sea Level Pressure  
Sea Level Pressure 29.86 in    
Wind  
Wind Speed 14 mph (WNW)    
Max Wind Speed 22 mph    
Max Gust Speed 32 mph    
Visibility 10 miles    
Events      
Averages and records for this station are not official NWS values.
T = Trace of Precipitation, MM = Missing Value Source: NWS Daily Summary

Daily Weather History Graph

Daily Weather History Graph

Search for Another Location

Airport or City:

Trip Planner

Search our weather history database for the weather conditions in past years. The results will help you decide how hot, cold, wet, or windy it might be!

Date:

Astronomy

Oct. 30, 2012 Rise Set
Actual Time 7:33 AM EDT 6:38 PM EDT
Civil Twilight 7:09 AM EDT 7:03 PM EDT
Nautical Twilight 6:41 AM EDT 7:30 PM EDT
Astronomical Twilight 6:14 AM EDT 7:58 PM EDT
Moon 7:14 PM EDT (10/30) 8:13 AM EDT (10/30)
Length of Visible Light 11h 53m
Length of Day
11h 04m
Full, 99% of the Moon is Illuminated
Oct 30
Full
Nov 6
Last Quarter
Nov 13
New
Nov 20
First Quarter
Nov 28
Full

Hourly Weather History & Observations

Time (EDT) Temp. Dew Point Humidity Pressure Visibility Wind Dir Wind Speed Gust Speed Precip Events Conditions
12:55 AM 55.0 °F 36.9 °F 50% 29.82 in 10.0 mi NW 15.0 mph 24.2 mph N/A   Clear
1:55 AM 53.6 °F 35.2 °F 50% 29.81 in 10.0 mi NW 13.8 mph 18.4 mph N/A   Clear
2:55 AM 52.0 °F 35.1 °F 53% 29.81 in 10.0 mi NW 11.5 mph - N/A   Clear
3:55 AM 50.7 °F 34.3 °F 53% 29.81 in 10.0 mi WNW 13.8 mph - N/A   Clear
4:55 AM 50.2 °F 33.3 °F 52% 29.83 in 10.0 mi WNW 11.5 mph - N/A   Clear
5:55 AM 48.4 °F 34.5 °F 59% 29.84 in 10.0 mi West 6.9 mph - N/A   Clear
6:55 AM 47.3 °F 34.9 °F 62% 29.86 in 10.0 mi West 9.2 mph - N/A   Clear
7:55 AM 47.3 °F 33.4 °F 59% 29.88 in 10.0 mi West 9.2 mph - N/A   Clear
8:55 AM 50.4 °F 32.9 °F 51% 29.89 in 10.0 mi WNW 16.1 mph 21.9 mph N/A   Clear
9:55 AM 53.8 °F 32.9 °F 45% 29.90 in 10.0 mi West 11.5 mph - N/A   Clear
10:55 AM 57.4 °F 32.5 °F 39% 29.89 in 10.0 mi WNW 18.4 mph 26.5 mph N/A   Clear
11:55 AM 61.0 °F 34.3 °F 37% 29.88 in 10.0 mi West 19.6 mph 27.6 mph N/A   Clear
12:55 PM 62.8 °F 34.0 °F 34% 29.86 in 10.0 mi West 21.9 mph 28.8 mph N/A   Clear
1:55 PM 65.5 °F 37.4 °F 35% 29.83 in 10.0 mi West 21.9 mph 29.9 mph N/A   Clear
2:55 PM 66.9 °F 35.1 °F 31% 29.82 in 10.0 mi West 20.7 mph 32.2 mph N/A   Clear
3:55 PM 66.9 °F 32.7 °F 28% 29.82 in 10.0 mi WNW 17.3 mph - N/A   Clear
4:55 PM 66.4 °F 36.1 °F 33% 29.81 in 10.0 mi West 17.3 mph 24.2 mph N/A   Clear
5:55 PM 64.4 °F 34.9 °F 33% 29.82 in 10.0 mi West 17.3 mph 21.9 mph N/A   Clear
6:55 PM 61.5 °F 37.2 °F 41% 29.85 in 10.0 mi West 10.4 mph - N/A   Clear
7:55 PM 59.0 °F 38.3 °F 46% 29.88 in 10.0 mi West 9.2 mph - N/A   Clear
8:55 PM 57.4 °F 41.7 °F 56% 29.90 in 10.0 mi West 9.2 mph - N/A   Clear
9:55 PM 56.3 °F 43.7 °F 63% 29.93 in 10.0 mi West 10.4 mph - N/A   Clear
10:55 PM 55.8 °F 45.5 °F 68% 29.94 in 10.0 mi West 6.9 mph - N/A   Clear
11:55 PM 54.7 °F 46.6 °F 74% 29.95 in 10.0 mi West 5.8 mph - N/A   Clear